#timestamp,LO_Frequency,Hit,StdDev 
1625832015.6,286047000.3,N
1625832035.4,286047000.2,N
1625832055.2,286047002.5,N
1625832075.1,286047002.4,N
1625832076.0,286047002.4,N
1625832095.8,286047002.6,N
1625832115.7,286047002.6,N
1625832135.5,286047002.5,N
1625832155.3,286046999.7,N
1625832175.2,286046999.7,N
1625832195.0,286047001.5,N
1625832195.9,286047001.5,N
1625832215.7,286047005.7,Y
1625832235.6,286047001.5,P
1625832255.4,286047002.0,P
1625832275.3,286047001.9,P
1625832295.1,286047002.4,Y
1625832315.8,286046999.3,P
1625832335.7,286046999.1,N
1625832355.5,286047001.0,N
1625832375.3,286046998.2,N
1625832395.2,286046998.1,N
1625832415.0,286047001.2,N
1625832415.9,286047001.2,N
1625832435.8,286047000.9,N
1625832455.6,286047000.0,N
1625832475.4,286046998.3,N
1625832495.3,286046999.5,N
1625832515.1,286046999.1,N
1625832535.9,286046999.4,N
1625832555.7,286047000.7,N
1625832575.5,286046998.3,N
1625832595.4,286047000.8,N
1625832615.2,286046998.1,N
1625832635.0,286046999.3,N
1625832635.9,286046999.3,N
1625832655.8,286047000.7,N
1625832675.6,286047000.3,N
1625832695.5,286046998.2,N
1625832715.3,286046999.2,N
1625832735.1,286046997.4,N
1625832755.9,286046998.0,N
1625832775.7,286046996.7,N
1625832795.5,286046997.7,N
1625832815.4,286046997.8,N
1625832835.2,286046999.1,N
1625832855.1,286046997.0,N
1625832856.0,286046997.0,N
1625832875.8,286046997.6,N
1625832895.6,286046998.0,N
1625832915.5,286046996.5,N
1625832935.3,286046995.5,Y
1625832955.1,286046997.1,P
1625832975.9,286046996.8,P
1625832995.7,286046999.6,N
1625833015.6,286046998.1,N
1625833035.4,286046999.5,N
1625833055.2,286046999.5,N
1625833075.1,286046999.3,N
1625833076.0,286046999.3,N
1625833095.8,286046998.8,N
1625833115.6,286046999.0,N
1625833135.5,286046998.8,N
1625833155.3,286046998.9,N
1625833175.2,286046999.4,N
1625833195.9,286046997.0,Y
1625833215.7,286047001.0,P
1625833235.6,286047001.1,N
1625833255.4,286047000.5,N
1625833275.2,286046998.6,N
1625833295.1,286047000.9,N
1625833296.0,286047000.9,N
1625833315.8,286047000.8,N
1625833335.7,286047000.1,N
1625833355.5,286047001.0,N
1625833375.3,286047000.6,N
1625833395.2,286047000.4,N
1625833415.0,286047000.1,N
1625833415.9,286047000.1,N
1625833435.7,286047001.1,N
1625833455.6,286047001.0,N
1625833475.4,286047000.9,N
1625833495.3,286047000.6,N
1625833515.1,286047001.1,N
1625833535.8,286047001.0,N
1625833555.7,286047000.1,N
1625833575.5,286047001.2,N
1625833595.4,286047002.7,Y
1625833615.2,286047001.1,P
1625833635.0,286046998.6,P
1625833635.9,286046998.6,N
1625833655.8,286046998.7,N
1625833675.6,286046999.6,N
1625833695.5,286046998.7,N
1625833715.3,286046996.9,Y
1625833735.1,286047000.9,P
1625833755.9,286046999.9,N
1625833775.7,286047002.3,P
1625833795.5,286047000.0,N
1625833815.4,286047001.1,N
1625833835.2,286047001.1,N
1625833855.1,286047001.2,N
1625833856.0,286047001.2,N
1625833875.8,286046998.6,N
1625833895.6,286047000.5,N
1625833915.5,286046999.9,N
1625833935.3,286047000.0,N
1625833955.1,286046999.8,N
1625833975.9,286047000.0,N
1625833995.7,286047000.1,N
1625834015.6,286047002.6,N
1625834035.4,286046999.9,N
1625834055.2,286046999.8,N
1625834075.1,286047004.0,Y
1625834076.0,286047004.0,P
1625834095.8,286047002.5,N
1625834115.6,286047004.4,N
1625834135.5,286047001.6,N
1625834155.3,286047001.3,N
1625834175.2,286047004.4,Y
1625834195.9,286047002.4,P
1625834215.7,286047001.9,P
1625834235.6,286047000.4,N
1625834255.4,286047000.3,N
1625834275.2,286047001.2,N
1625834295.1,286047001.2,N
1625834296.0,286047001.2,N
1625834315.8,286046999.9,N
1625834335.7,286046998.5,N
1625834355.5,286046998.4,N
1625834375.3,286046998.3,N
1625834395.2,286046998.3,N
1625834415.9,286046999.3,N
1625834435.7,286046999.6,N
1625834455.6,286046996.6,N
1625834475.4,286046996.7,N
1625834495.2,286046997.0,N
1625834515.1,286046999.1,N
1625834516.0,286046999.1,N
1625834535.8,286046996.5,N
1625834555.7,286046998.3,N
1625834575.5,286047000.8,N
1625834595.3,286046998.3,N
1625834615.2,286046998.9,N
1625834635.0,286046998.8,N
1625834635.9,286046998.8,N
1625834655.7,286046998.4,N
1625834675.6,286046996.7,N
1625834695.4,286046999.5,N
1625834715.3,286047001.1,N
1625834735.1,286046998.7,N
1625834755.8,286046998.3,N
1625834775.7,286047000.4,N
1625834795.5,286047000.8,N
1625834815.4,286046998.2,N
1625834835.2,286047000.7,N
1625834855.0,286046998.5,N
1625834855.9,286046998.5,N
1625834875.8,286046998.3,N
1625834895.6,286046997.1,N
1625834915.4,286046996.6,N
1625834935.3,286046994.9,Y
1625834955.1,286046999.5,P
1625834975.9,286046998.1,P
1625834995.7,286046998.4,N
1625835015.5,286047002.3,Y
1625835035.4,286047003.4,P
1625835055.2,286047003.4,N
1625835075.0,286047003.6,N
1625835075.9,286047003.6,N
1625835095.8,286047001.3,N
1625835115.6,286047002.3,N
1625835135.5,286047000.2,N
1625835155.3,286046999.8,N
1625835175.1,286047002.0,N
1625835195.9,286047001.0,N
1625835215.7,286047000.9,N
1625835235.5,286047000.8,N
1625835255.4,286047000.7,N
1625835275.2,286047000.7,N
1625835295.1,286046998.6,N
1625835296.0,286046998.6,N
1625835315.8,286047000.3,N
1625835335.6,286047001.1,N
1625835355.5,286047001.0,N
1625835375.3,286046998.1,N
1625835395.1,286046998.8,N
1625835415.9,286046998.1,N
1625835435.7,286046999.7,N
1625835455.6,286047002.0,N
1625835475.4,286046999.7,N
1625835495.2,286047001.0,N
1625835515.1,286046999.8,N
1625835516.0,286046999.8,N
1625835535.8,286047000.5,N
1625835555.6,286047001.0,N
1625835575.5,286047000.3,N
1625835595.3,286047000.4,N
